This is the latest recevied weather packets stored in our database for station/object N9OJR. If no packets are shown the sender has not sent any weather packets the latest 10 day(s).
| Time | Temp. | Humidity | Pressure | Rain* | Wind** | Luminosity | Snow |
|---|---|---|---|---|---|---|---|
| 1778068045 | 7.22° C | 99% | 1005.1 hPa | 0 mm | - | 27 W/m² | - |
| 1778067742 | 6.67° C | 99% | 1005.6 hPa | 0 mm | - | 30 W/m² | - |
| 1778067440 | 6.67° C | 99% | 1005.6 hPa | 0 mm | - | 20 W/m² | - |
| 1778067137 | 7.22° C | 99% | 1005.8 hPa | 0 mm | - | 12 W/m² | - |
| 1778066834 | 7.22° C | 99% | 1005.6 hPa | 0 mm | - | 9 W/m² | - |
| 1778066532 | 6.67° C | 99% | 1005.2 hPa | 0 mm | - | 14 W/m² | - |
| 1778066229 | 7.22° C | 99% | 1005.3 hPa | 0 mm | - | 10 W/m² | - |
| 1778065927 | 7.22° C | 99% | 1004.9 hPa | 0 mm | - | 6 W/m² | - |
| 1778065623 | 7.22° C | 99% | 1004.8 hPa | 0 mm | - | 3 W/m² | - |
| 1778065321 | 7.22° C | 99% | 1004.9 hPa | 0 mm | - | 3 W/m² | - |
| 1778065018 | 7.22° C | 99% | 1005.4 hPa | 0 mm | - | 2 W/m² | - |
| 1778064714 | 7.22° C | 99% | 1005.2 hPa | 0 mm | - | 1 W/m² | - |
| 1778064413 | 7.22° C | 99% | 1004.6 hPa | 0 mm | - | 1 W/m² | - |
| 1778064110 | 6.67° C | 99% | 1004.6 hPa | 0 mm | - | 1 W/m² | - |
| 1778063807 | 7.22° C | 99% | 1004.5 hPa | 0 mm | - | 0 W/m² | - |
| 1778063504 | 6.67° C | 99% | 1004.3 hPa | 0 mm | - | 0 W/m² | - |
| 1778063202 | 6.67° C | 99% | 1004.1 hPa | 0 mm | - | 0 W/m² | - |
| 1778062899 | 6.67° C | 99% | 1003.7 hPa | 0 mm | - | 0 W/m² | - |
| 1778062596 | 6.67° C | 99% | 1003.4 hPa | 0 mm | - | 0 W/m² | - |
| 1778062293 | 6.67° C | 99% | 1004 hPa | 0 mm | - | 0 W/m² | - |
| 1778061991 | 6.67° C | 99% | 1004 hPa | 0 mm | - | 0 W/m² | - |
| 1778061689 | 6.67° C | 99% | 1003.8 hPa | 0 mm | - | 0 W/m² | - |
| 1778061387 | 6.67° C | 99% | 1003.3 hPa | 0 mm | - | 0 W/m² | - |
| 1778061083 | 6.67° C | 99% | 1003.4 hPa | 0 mm | - | 0 W/m² | - |
| 1778060781 | 6.67° C | 99% | 1003.8 hPa | 0 mm | - | 0 W/m² | - |
* Rain latest hour (hover to see other rain measurements)
** Current wind speed in m/s (hover to see current wind gust speed)